ギブス彗星

C/2010 M1 ( Gibbs )

English version
Home page
Updated on August 29, 2010

---------------------------------------------------------------------

・ プロフィール

発見日 2010年6月22日
発見光度 20.9等
発見者 A. R. Gibbs (Mount Lemmon Survey)

・ 軌道要素

T 2012 Feb. 7.840 TT                                    MPC
q   2.29869              (2000.0)            P               Q
                   Peri.  265.318       +0.187830       +0.152427
                   Node    82.150       +0.288953       +0.935593
e   1.0            Incl.   78.373       -0.938736       +0.318484
From 15 observations 2010 June 22-23.

・ 星図

・ 光度変化

        m1 = 8.5 + 5 logΔ + 10.0 log r

---------------------------------------------------------------------

軌道要素はM.P.E.C. 2010-M51に掲載されたものです。
星図はステラナビゲータ Ver.8 (アストロアーツ) で作成したものです。
光度グラフはComet for Windowsで作成したものです。

---------------------------------------------------------------------

Copyright(C) Seiichi Yoshida (comet@aerith.net). All rights reserved.